{"data":{"norad_id":65798,"intl_designator":"2025-218H","name":"STARLINK-35414","alt_names":[],"object_type":"PAYLOAD","status":"ACTIVE","operator":null,"country":"US","launch_date":"2025-09-26","launch_site_code":"AFWTR","launch_vehicle":null,"mission":null,"orbit_class":"UNKNOWN","rcs_meters":null,"size_class":null,"mass_kg":null,"dimensions":null,"purposes":["comms"],"wikipedia_slug":null,"has_3d_model":false,"image_url":null,"decayed_at":null,"tle_current":{"epoch":"2026-05-25T03:31:08.793120Z","epoch_age_seconds":58294,"freshness":"FRESH","line1":"1 65798U 25218H   26145.14662955  .00002475  00000+0  17549-3 0  9995","line2":"2 65798  97.4501   7.9265 0002359  92.3462 267.8035 15.05655534 36477","mean_motion":15.05655534,"eccentricity":0.0002359,"inclination_deg":97.4501,"raan_deg":7.9265,"arg_perigee_deg":92.3462,"mean_anomaly_deg":267.8035,"bstar":0.00017549,"rev_number":3647,"period_min":95.639405394036,"perigee_km":547.8599508996,"apogee_km":551.1284072899,"semimajor_km":6927.6311790948,"source":"CELESTRAK","updated_at":"2026-05-25T13:38:20.937312Z"}}}